Time,TemperatureF,DewpointF,PressureIn,WindDirection,WindDirectionDegrees,WindSpeedMPH,WindSpeedGustMPH,Humidity,HourlyPrecipIn,Conditions,Clouds,dailyrainin,SoftwareType,DateUTC
2013-01-16 08:33:00,51.0,16.0,-100.00,North,-999,-999.0,-999.0,25,-99.99,,,-99.99,,2013-01-16 16:33:00,
2013-01-16 08:53:00,-999.0,-99.9,-100.00,North,600,0.0,-999.0,-999,-99.99,,,-99.99,,2013-01-16 16:53:00,
2013-01-16 09:03:00,-999.0,-99.9,-100.00,North,600,0.0,-999.0,-999,-99.99,,,-99.99,,2013-01-16 17:03:00,
2013-01-16 09:12:00,-999.0,-99.9,-100.00,North,600,0.0,-999.0,-999,-99.99,,,-99.99,,2013-01-16 17:12:00,
2013-01-16 09:22:00,57.0,18.0,-100.00,North,-999,-999.0,-999.0,22,-99.99,,,-99.99,,2013-01-16 17:22:00,
2013-01-16 09:33:00,58.0,17.0,-100.00,North,-999,-999.0,-999.0,20,-99.99,,,-99.99,,2013-01-16 17:33:00,
2013-01-16 09:43:00,58.0,17.0,-100.00,North,-999,-999.0,-999.0,20,-99.99,,,-99.99,,2013-01-16 17:43:00,
2013-01-16 09:52:00,58.0,18.0,-100.00,North,-999,-999.0,-999.0,21,-99.99,,,-99.99,,2013-01-16 17:52:00,
2013-01-16 10:02:00,57.0,18.0,-100.00,North,-999,-999.0,-999.0,21,-99.99,,,-99.99,,2013-01-16 18:02:00,
2013-01-16 10:12:00,57.0,18.0,-100.00,North,-999,-999.0,-999.0,21,-99.99,,,-99.99,,2013-01-16 18:12:00,
2013-01-16 10:22:00,56.0,18.0,-100.00,North,-999,-999.0,-999.0,22,-99.99,,,-99.99,,2013-01-16 18:22:00,
2013-01-16 10:33:00,55.0,19.0,-100.00,North,-999,-999.0,-999.0,24,-99.99,,,-99.99,,2013-01-16 18:33:00,
2013-01-16 10:42:00,55.0,19.0,-100.00,North,-999,-999.0,-999.0,24,-99.99,,,-99.99,,2013-01-16 18:42:00,
2013-01-16 10:52:00,55.0,18.0,-100.00,North,-999,-999.0,-999.0,23,-99.99,,,-99.99,,2013-01-16 18:52:00,
2013-01-16 11:02:00,58.0,20.0,-100.00,North,-999,-999.0,-999.0,23,-99.99,,,-99.99,,2013-01-16 19:02:00,
2013-01-16 11:12:00,58.0,20.0,-100.00,North,-999,-999.0,-999.0,23,-99.99,,,-99.99,,2013-01-16 19:12:00,
2013-01-16 11:22:00,59.0,18.0,-100.00,North,-999,-999.0,-999.0,20,-99.99,,,-99.99,,2013-01-16 19:22:00,
2013-01-16 11:42:00,59.0,18.0,-100.00,North,-999,-999.0,-999.0,20,-99.99,,,-99.99,,2013-01-16 19:42:00,
2013-01-16 12:03:00,59.0,19.0,-100.00,North,-999,-999.0,-999.0,21,-99.99,,,-99.99,,2013-01-16 20:03:00,
2013-01-16 12:12:00,59.0,19.0,-100.00,North,-999,-999.0,-999.0,21,-99.99,,,-99.99,,2013-01-16 20:12:00,
2013-01-16 12:23:00,59.0,19.0,-100.00,North,-999,-999.0,-999.0,21,-99.99,,,-99.99,,2013-01-16 20:23:00,
2013-01-16 12:33:00,57.0,22.0,-100.00,North,-999,-999.0,-999.0,26,-99.99,,,-99.99,,2013-01-16 20:33:00,
2013-01-16 12:43:00,57.0,22.0,-100.00,North,-999,-999.0,-999.0,26,-99.99,,,-99.99,,2013-01-16 20:43:00,
2013-01-16 12:53:00,59.0,22.0,-100.00,North,-999,-999.0,-999.0,23,-99.99,,,-99.99,,2013-01-16 20:53:00,
2013-01-16 13:02:00,62.0,28.0,-100.00,North,-999,-999.0,-999.0,27,-99.99,,,-99.99,,2013-01-16 21:02:00,
2013-01-16 13:12:00,62.0,28.0,-100.00,North,-999,-999.0,-999.0,27,-99.99,,,-99.99,,2013-01-16 21:12:00,
2013-01-16 13:22:00,61.0,25.0,-100.00,North,-999,-999.0,-999.0,25,-99.99,,,-99.99,,2013-01-16 21:22:00,
2013-01-16 13:32:00,60.0,29.0,-100.00,North,-999,-999.0,-999.0,31,-99.99,,,-99.99,,2013-01-16 21:32:00,
2013-01-16 13:42:00,60.0,29.0,-100.00,North,-999,-999.0,-999.0,31,-99.99,,,-99.99,,2013-01-16 21:42:00,
2013-01-16 13:52:00,59.0,27.0,-100.00,North,-999,-999.0,-999.0,29,-99.99,,,-99.99,,2013-01-16 21:52:00,
2013-01-16 14:02:00,58.0,25.0,-100.00,North,-999,-999.0,-999.0,28,-99.99,,,-99.99,,2013-01-16 22:02:00,
2013-01-16 14:12:00,58.0,25.0,-100.00,North,-999,-999.0,-999.0,28,-99.99,,,-99.99,,2013-01-16 22:12:00,
2013-01-16 14:22:00,55.0,23.0,-100.00,North,-999,-999.0,-999.0,28,-99.99,,,-99.99,,2013-01-16 22:22:00,
2013-01-16 14:32:00,54.0,19.0,-100.00,North,-999,-999.0,-999.0,25,-99.99,,,-99.99,,2013-01-16 22:32:00,
2013-01-16 14:42:00,54.0,19.0,-100.00,North,-999,-999.0,-999.0,25,-99.99,,,-99.99,,2013-01-16 22:42:00,
2013-01-16 14:52:00,54.0,21.0,-100.00,North,-999,-999.0,-999.0,28,-99.99,,,-99.99,,2013-01-16 22:52:00,
2013-01-16 15:02:00,54.0,21.0,-100.00,North,-999,-999.0,-999.0,27,-99.99,,,-99.99,,2013-01-16 23:02:00,
2013-01-16 15:12:00,54.0,21.0,-100.00,North,-999,-999.0,-999.0,27,-99.99,,,-99.99,,2013-01-16 23:12:00,
2013-01-16 15:22:00,53.0,21.0,-100.00,North,-999,-999.0,-999.0,28,-99.99,,,-99.99,,2013-01-16 23:22:00,
2013-01-16 15:32:00,54.0,23.0,-100.00,North,-999,-999.0,-999.0,29,-99.99,,,-99.99,,2013-01-16 23:32:00,
2013-01-16 16:02:00,55.0,23.0,-100.00,North,-999,-999.0,-999.0,28,-99.99,,,-99.99,,2013-01-17 00:02:00,
2013-01-16 16:12:00,55.0,23.0,-100.00,North,-999,-999.0,-999.0,28,-99.99,,,-99.99,,2013-01-17 00:12:00,
2013-01-16 16:22:00,55.0,23.0,-100.00,North,-999,-999.0,-999.0,28,-99.99,,,-99.99,,2013-01-17 00:22:00,
2013-01-16 16:32:00,55.0,24.0,-100.00,North,-999,-999.0,-999.0,30,-99.99,,,-99.99,,2013-01-17 00:32:00,
2013-01-16 16:42:00,55.0,24.0,-100.00,North,-999,-999.0,-999.0,30,-99.99,,,-99.99,,2013-01-17 00:42:00,
2013-01-16 16:52:00,54.0,25.0,-100.00,North,-999,-999.0,-999.0,32,-99.99,,,-99.99,,2013-01-17 00:52:00,
2013-01-16 17:02:00,54.0,24.0,-100.00,North,-999,-999.0,-999.0,30,-99.99,,,-99.99,,2013-01-17 01:02:00,
2013-01-16 17:12:00,54.0,24.0,-100.00,North,-999,-999.0,-999.0,30,-99.99,,,-99.99,,2013-01-17 01:12:00,
2013-01-16 17:22:00,54.0,23.0,-100.00,North,-999,-999.0,-999.0,30,-99.99,,,-99.99,,2013-01-17 01:22:00,
2013-01-16 17:32:00,54.0,22.0,-100.00,North,-999,-999.0,-999.0,28,-99.99,,,-99.99,,2013-01-17 01:32:00,
2013-01-16 17:42:00,54.0,22.0,-100.00,North,-999,-999.0,-999.0,28,-99.99,,,-99.99,,2013-01-17 01:42:00,
2013-01-16 17:52:00,54.0,23.0,-100.00,North,-999,-999.0,-999.0,29,-99.99,,,-99.99,,2013-01-17 01:52:00,
2013-01-16 18:02:00,54.0,23.0,-100.00,North,-999,-999.0,-999.0,29,-99.99,,,-99.99,,2013-01-17 02:02:00,
2013-01-16 18:12:00,54.0,22.0,-100.00,North,-999,-999.0,-999.0,28,-99.99,,,-99.99,,2013-01-17 02:12:00,
2013-01-16 18:22:00,54.0,21.0,-100.00,North,-999,-999.0,-999.0,28,-99.99,,,-99.99,,2013-01-17 02:22:00,
2013-01-16 18:32:00,54.0,21.0,-100.00,North,-999,-999.0,-999.0,28,-99.99,,,-99.99,,2013-01-17 02:32:00,
2013-01-16 18:42:00,54.0,21.0,-100.00,North,-999,-999.0,-999.0,28,-99.99,,,-99.99,,2013-01-17 02:42:00,
2013-01-16 18:52:00,54.0,21.0,-100.00,North,-999,-999.0,-999.0,28,-99.99,,,-99.99,,2013-01-17 02:52:00,
2013-01-16 19:02:00,53.0,21.0,-100.00,North,-999,-999.0,-999.0,28,-99.99,,,-99.99,,2013-01-17 03:02:00,
2013-01-16 19:12:00,53.0,21.0,-100.00,North,-999,-999.0,-999.0,28,-99.99,,,-99.99,,2013-01-17 03:12:00,
2013-01-16 19:22:00,53.0,21.0,-100.00,North,-999,-999.0,-999.0,28,-99.99,,,-99.99,,2013-01-17 03:22:00,
2013-01-16 19:32:00,53.0,21.0,-100.00,North,-999,-999.0,-999.0,28,-99.99,,,-99.99,,2013-01-17 03:32:00,
2013-01-16 19:42:00,54.0,20.0,-100.00,North,-999,-999.0,-999.0,26,-99.99,,,-99.99,,2013-01-17 03:42:00,
2013-01-16 19:52:00,54.0,17.0,-100.00,North,-999,-999.0,-999.0,23,-99.99,,,-99.99,,2013-01-17 03:52:00,
2013-01-16 20:02:00,54.0,17.0,-100.00,North,-999,-999.0,-999.0,23,-99.99,,,-99.99,,2013-01-17 04:02:00,
2013-01-16 20:12:00,55.0,17.0,-100.00,North,-999,-999.0,-999.0,22,-99.99,,,-99.99,,2013-01-17 04:12:00,
2013-01-16 20:22:00,55.0,17.0,-100.00,North,-999,-999.0,-999.0,22,-99.99,,,-99.99,,2013-01-17 04:22:00,
2013-01-16 20:32:00,55.0,17.0,-100.00,North,-999,-999.0,-999.0,22,-99.99,,,-99.99,,2013-01-17 04:32:00,
2013-01-16 20:42:00,56.0,17.0,-100.00,North,-999,-999.0,-999.0,21,-99.99,,,-99.99,,2013-01-17 04:42:00,
2013-01-16 20:52:00,56.0,15.0,-100.00,North,-999,-999.0,-999.0,19,-99.99,,,-99.99,,2013-01-17 04:52:00,
2013-01-16 21:04:00,56.0,15.0,-100.00,North,-999,-999.0,-999.0,19,-99.99,,,-99.99,,2013-01-17 05:04:00,
2013-01-16 21:12:00,56.0,16.0,-100.00,North,-999,-999.0,-999.0,20,-99.99,,,-99.99,,2013-01-17 05:12:00,
2013-01-16 21:22:00,55.0,14.0,-100.00,North,-999,-999.0,-999.0,19,-99.99,,,-99.99,,2013-01-17 05:22:00,
2013-01-16 21:32:00,55.0,14.0,-100.00,North,-999,-999.0,-999.0,19,-99.99,,,-99.99,,2013-01-17 05:32:00,
2013-01-16 21:42:00,55.0,14.0,-100.00,North,-999,-999.0,-999.0,19,-99.99,,,-99.99,,2013-01-17 05:42:00,
2013-01-16 21:52:00,57.0,11.0,-100.00,North,-999,-999.0,-999.0,16,-99.99,,,-99.99,,2013-01-17 05:52:00,
2013-01-16 22:02:00,57.0,11.0,-100.00,North,-999,-999.0,-999.0,16,-99.99,,,-99.99,,2013-01-17 06:02:00,
2013-01-16 22:11:00,57.0,10.0,-100.00,North,-999,-999.0,-999.0,15,-99.99,,,-99.99,,2013-01-17 06:11:00,
2013-01-16 22:22:00,57.0,11.0,-100.00,North,-999,-999.0,-999.0,16,-99.99,,,-99.99,,2013-01-17 06:22:00,
2013-01-16 22:32:00,57.0,10.0,-100.00,North,-999,-999.0,-999.0,15,-99.99,,,-99.99,,2013-01-17 06:32:00,
2013-01-16 22:52:00,56.0,9.0,-100.00,North,-999,-999.0,-999.0,15,-99.99,,,-99.99,,2013-01-17 06:52:00,
2013-01-16 23:02:00,56.0,9.0,-100.00,North,-999,-999.0,-999.0,15,-99.99,,,-99.99,,2013-01-17 07:02:00,
2013-01-16 23:11:00,55.0,7.0,-100.00,North,-999,-999.0,-999.0,14,-99.99,,,-99.99,,2013-01-17 07:11:00,
2013-01-16 23:22:00,54.0,8.0,-100.00,North,-999,-999.0,-999.0,15,-99.99,,,-99.99,,2013-01-17 07:22:00,
2013-01-16 23:32:00,54.0,8.0,-100.00,North,-999,-999.0,-999.0,15,-99.99,,,-99.99,,2013-01-17 07:32:00,
2013-01-16 23:42:00,69.0,18.0,-100.00,North,-999,-999.0,-999.0,14,-99.99,,,-99.99,,2013-01-17 07:42:00,
2013-01-16 23:52:00,54.0,6.0,-100.00,North,-999,-999.0,-999.0,14,-99.99,,,-99.99,,2013-01-17 07:52:00,